15min,AgWx,beryljct,423,28MAR2021:00:00:00,33.0,12.82,31.7,32.0,32.7,34.3,31.5,70,72,67,0.434,23.9,25.1,22.7,3.946,4.5,311,16,5.9,0.00000,0.00002,43.8,44.0,14,0,0,.,7.83,0.00,0.00
15min,AgWx,beryljct,423,28MAR2021:00:15:00,32.8,12.81,33.2,33.4,32.2,33.4,31.4,71,73,70,0.459,23.9,25.0,23.0,5.568,5.2,313,10,6.9,0.00001,0.00003,43.5,44.0,14,0,0,.,7.82,0.00,0.00
15min,AgWx,beryljct,423,28MAR2021:00:30:00,32.7,12.8,33.6,32.3,32.8,33.7,31.7,71,74,70,0.455,24.5,25.4,23.7,4.867,5.5,314,11,7.6,0.00002,0.00004,43.3,44.0,14,0,0,.,7.83,0.00,0.00
15min,AgWx,beryljct,423,28MAR2021:00:45:00,32.5,12.8,28.9,31.9,32.3,33.9,31.4,72,74,68,0.438,24.4,25.9,22.5,0.877,4.3,291,7.6,5.6,-0.00001,-0.00000,43.1,44.0,14,0,0,.,7.83,0.00,0.00
15min,AgWx,beryljct,423,28MAR2021:01:00:00,32.1,12.79,36.3,35.7,33.2,35.9,30.4,71,76,66,0.470,24.9,26.1,22.2,1.425,2.2,320,15,4.1,-0.00009,-0.00011,42.9,43.9,14,0,0,.,7.83,0.00,0.00
15min,AgWx,beryljct,423,28MAR2021:01:15:00,32.1,12.78,35.2,34.4,34.2,36.0,33.0,69,71,65,0.468,24.9,25.8,23.6,3.749,2.5,307,18,4.2,-0.00007,-0.00008,42.7,43.9,14,0,0,.,7.83,0.00,0.00
15min,AgWx,beryljct,423,28MAR2021:01:30:00,31.8,12.77,31.8,32.0,31.7,34.9,29.1,73,78,64,0.445,24.1,26.0,19.8,2.916,2.8,293,50,4.3,-0.00007,-0.00007,42.5,43.8,14,0,0,.,7.83,0.00,0.00
15min,AgWx,beryljct,423,28MAR2021:01:45:00,31.4,12.77,28.6,28.2,31.4,33.4,27.9,73,77,69,0.406,23.6,25.4,20.2,1.162,2.7,303,4.2,3.6,-0.00007,-0.00007,42.3,43.8,14,0,0,.,7.83,0.00,0.00
15min,AgWx,beryljct,423,28MAR2021:02:00:00,30.7,12.76,37.0,35.5,31.1,35.5,28.3,77,82,70,0.489,24.6,27.2,22.3,5.437,3.9,304,8.8,5.4,-0.00004,-0.00004,42.1,43.8,14,0,0,.,7.83,0.00,0.00
15min,AgWx,beryljct,423,28MAR2021:02:15:00,30.7,12.76,22.7,24.2,31.6,36.4,24.2,70,76,65,0.335,22.9,26.7,17.6,4.341,4.7,336,11,6.1,0.00001,0.00003,41.8,43.7,14,0,0,.,7.83,0.00,0.00
15min,AgWx,beryljct,423,28MAR2021:02:30:00,29.4,12.73,22.2,21.8,22.4,23.9,21.8,82,84,76,0.338,17.7,18.4,16.9,2.214,3.8,333,5.7,4.8,-0.00005,-0.00005,41.6,43.6,14,0,0,.,7.84,0.00,0.00
15min,AgWx,beryljct,423,28MAR2021:02:45:00,27.9,12.71,26.7,25.4,23.6,25.4,20.9,85,89,83,0.394,19.9,22.3,16.6,4.911,3.8,176,37,7.2,-0.00006,-0.00007,41.4,43.6,14,0,0,.,7.84,0.00,0.00
15min,AgWx,beryljct,423,28MAR2021:03:00:00,27.2,12.73,25.3,24.4,25.1,27.0,24.1,83,85,79,0.371,20.7,22.4,19.0,2.74,3.5,162,13,5.3,-0.00006,-0.00007,41.2,43.5,14,0,0,.,7.84,0.00,0.00
15min,AgWx,beryljct,423,28MAR2021:03:15:00,26.5,12.71,25.7,25.0,25.4,26.9,23.4,82,85,78,0.386,20.8,22.2,18.3,1.513,2.8,169,9.3,4.6,-0.00008,-0.00009,41.0,43.5,14,0,0,.,7.84,0.00,0.00
15min,AgWx,beryljct,423,28MAR2021:03:30:00,25.7,12.71,21.8,21.4,22.5,25.2,21.1,84,87,81,0.343,18.3,21.1,17.1,2.653,2.1,138,18,3.6,-0.00009,-0.00012,40.8,43.4,14,0,0,.,7.84,0.00,0.00
15min,AgWx,beryljct,423,28MAR2021:03:45:00,24.9,12.7,22.4,22.1,21.5,22.2,20.6,87,88,86,0.354,18.3,19.1,17.2,3.31,2.2,166,16,3.8,-0.00010,-0.00012,40.6,43.3,14,0,0,.,7.84,0.00,0.00
15min,AgWx,beryljct,423,28MAR2021:04:00:00,24.2,12.69,22.5,22.0,21.8,22.2,20.8,86,88,85,0.351,18.3,19.1,17.1,3.749,3.2,176,7.5,4.1,-0.00007,-0.00008,40.4,43.3,14,0,0,.,7.83,0.00,0.00
15min,AgWx,beryljct,423,28MAR2021:04:15:00,23.7,12.68,19.2,20.2,21.1,22.0,20.2,87,88,85,0.326,17.7,18.8,16.6,0.811,3.9,172,14,5.1,-0.00006,-0.00006,40.2,43.2,14,0,0,.,7.84,0.00,0.00
15min,AgWx,beryljct,423,28MAR2021:04:30:00,23.1,12.67,20.9,20.4,19.7,20.5,18.6,89,90,86,0.337,16.9,17.9,15.4,1.885,2.4,203,13,3.5,-0.00009,-0.00011,40.0,43.1,14,0,0,.,7.84,0.00,0.00
15min,AgWx,beryljct,423,28MAR2021:04:45:00,22.7,12.66,22.9,21.8,20.5,21.8,19.7,89,90,88,0.359,17.7,19.2,16.7,1.052,1.0,248,55,2.6,-0.00013,-0.00018,39.8,43.1,14,0,0,.,7.84,0.00,0.00
15min,AgWx,beryljct,423,28MAR2021:05:00:00,22.3,12.64,21.3,21.4,20.8,22.3,19.8,88,90,86,0.352,17.8,19.6,16.6,0.855,0.7,341,7.7,2.2,-0.00015,-0.00021,39.6,43.0,14,0,0,.,7.84,0.00,0.00
15min,AgWx,beryljct,423,28MAR2021:05:15:00,22.0,12.64,24.5,22.4,20.6,22.4,19.1,88,92,86,0.380,17.7,20.5,15.8,3.42,2.6,186,35,5.1,-0.00009,-0.00010,39.4,42.9,14,0,0,.,7.84,0.00,0.00
15min,AgWx,beryljct,423,28MAR2021:05:30:00,22.1,12.6,20.9,20.9,23.1,24.3,20.9,88,93,85,0.330,20.1,21.4,17.2,0.132,2.8,207,5.2,4.0,-0.00009,-0.00010,39.2,42.8,14,0,0,.,7.84,0.00,0.00
15min,AgWx,beryljct,423,28MAR2021:05:45:00,21.9,12.62,19.7,20.0,20.4,21.1,19.7,88,89,86,0.325,17.3,18.4,16.5,2.192,0.4,169,31,2.2,0.00001,0.00002,39.1,42.8,14,0,0,.,7.84,0.00,0.00
15min,AgWx,beryljct,423,28MAR2021:06:00:00,21.4,12.61,17.9,18.0,18.4,19.8,17.8,88,89,84,0.300,15.5,16.7,13.9,1.82,2.9,358,20,3.8,0.00004,0.00007,38.9,42.7,14,0,0,.,7.84,0.00,0.00
15min,AgWx,beryljct,423,28MAR2021:06:15:00,20.8,12.6,18.2,17.7,17.6,18.0,17.3,89,89,88,0.300,14.9,15.1,14.6,1.578,1.0,47,41,4.0,0.00002,0.00003,38.8,42.6,14,1,0,.,7.84,0.00,0.00
15min,AgWx,beryljct,423,28MAR2021:06:30:00,20.2,12.6,16.9,16.4,17.6,18.7,16.4,89,91,88,0.280,15.0,16.4,13.5,0,1.0,199,14,3.5,0.00003,0.00004,38.6,42.6,14,4,0,.,7.84,0.00,0.00
15min,AgWx,beryljct,423,28MAR2021:06:45:00,19.8,12.62,20.7,19.8,17.6,19.8,16.2,91,93,88,0.338,15.3,17.8,13.5,3.201,0.6,208,10,3.2,0.00009,0.00010,38.5,42.4,14,27,0,.,7.84,0.00,0.00
15min,AgWx,beryljct,423,28MAR2021:07:00:00,20.3,12.65,20.1,20.0,20.3,20.7,19.8,91,92,90,0.334,18.0,18.7,17.3,3.661,3.3,303,14,4.2,0.00022,0.00026,38.3,42.4,14,72,0,.,7.84,0.00,0.00
15min,AgWx,beryljct,423,28MAR2021:07:15:00,21.6,12.7,23.0,22.4,21.3,22.4,19.7,90,91,89,0.370,18.8,19.9,17.2,3.376,2.9,338,8.3,3.7,0.00033,0.00037,38.2,42.3,14,115,0,.,7.84,0.00,0.00
15min,AgWx,beryljct,423,28MAR2021:07:30:00,23.8,12.85,28.0,27.6,25.3,27.6,22.5,88,91,86,0.437,22.2,23.8,20.0,0.592,3.2,355,15,4.4,0.00049,0.00055,38.1,42.2,14,162,0,.,7.83,0.00,0.00
15min,AgWx,beryljct,423,28MAR2021:07:45:00,26.7,13.03,30.5,30.0,28.8,30.0,27.6,84,86,83,0.466,24.5,25.5,23.8,1.162,0.7,34,2.9,1.8,0.00072,0.00079,37.9,42.1,14,212,0,.,7.83,0.00,0.00
15min,AgWx,beryljct,423,28MAR2021:08:00:00,29.9,13.4,33.3,32.8,31.3,32.8,30.0,79,83,75,0.472,25.5,25.7,25.1,5.853,1.9,1.2,11,5.9,0.00094,0.00105,37.8,42.0,14,265,0,.,7.83,0.00,0.00
15min,AgWx,beryljct,423,28MAR2021:08:15:00,32.9,14.75,35.8,35.3,34.1,35.3,32.8,73,75,69,0.487,26.3,27.3,25.7,5.722,5.4,334,9.6,7.1,0.00119,0.00141,37.7,42.0,14,319,0,.,7.83,0.00,0.00
15min,AgWx,beryljct,423,28MAR2021:08:30:00,36.0,14.65,38.0,37.9,36.8,38.2,35.3,68,71,64,0.491,27.0,27.8,26.5,4.362,4.6,320,9.2,6.5,0.00149,0.00175,37.7,41.9,14,373,0,.,7.83,0.00,0.00
15min,AgWx,beryljct,423,28MAR2021:08:45:00,39.4,14.65,40.0,40.2,39.3,40.2,37.9,62,65,59,0.498,27.3,28.1,26.6,2.872,3.1,323,24,4.6,0.00182,0.00209,37.6,41.8,14,425,0,.,7.83,0.00,0.00
15min,AgWx,beryljct,423,28MAR2021:09:00:00,42.2,14.57,41.6,40.7,40.5,41.0,39.9,58,59,57,0.491,26.8,27.6,26.5,1.863,3.8,350,23,5.6,0.00209,0.00243,37.5,41.7,14,477,0,.,7.83,0.00,0.00
15min,AgWx,beryljct,423,28MAR2021:09:15:00,44.9,14.49,42.0,41.9,41.5,42.3,40.7,56,57,55,0.498,27.0,27.8,26.3,1.754,2.3,340,27,4.5,0.00236,0.00265,37.5,41.7,14,526,0,.,7.83,0.00,0.00
15min,AgWx,beryljct,423,28MAR2021:09:30:00,47.6,14.55,43.9,43.2,42.4,43.5,41.6,54,56,51,0.490,26.8,27.6,26.4,1.381,1.4,3.7,28,3.0,0.00263,0.00290,37.6,41.6,14,573,0,.,7.82,0.00,0.00
15min,AgWx,beryljct,423,28MAR2021:09:45:00,50.2,14.44,45.8,45.7,44.9,46.3,43.3,49,52,47,0.521,27.1,28.6,26.3,5.064,1.2,71,59,5.1,0.00297,0.00325,37.8,41.5,14,619,0,.,7.82,0.00,0.00
15min,AgWx,beryljct,423,28MAR2021:10:00:00,52.2,14.48,46.4,46.4,45.8,46.9,44.9,48,50,45,0.483,27.0,28.4,26.2,1.885,2.3,36,50,5.2,0.00321,0.00360,38.0,41.4,14,662,0,.,7.82,0.00,0.00
15min,AgWx,beryljct,423,28MAR2021:10:15:00,54.0,14.47,47.1,47.4,47.2,48.2,46.4,44,45,42,0.473,26.4,27.5,25.0,2.587,1.8,7.0,50,4.1,0.00349,0.00387,38.3,41.3,14,701,0,.,7.82,0.00,0.00
15min,AgWx,beryljct,423,28MAR2021:10:30:00,55.7,13.95,49.7,49.8,48.9,50.0,47.3,42,44,40,0.499,27.0,28.3,25.5,0.789,1.5,358,63,4.9,0.00376,0.00415,38.6,41.3,14,737,0,.,7.81,0.00,0.00
15min,AgWx,beryljct,423,28MAR2021:10:45:00,57.4,13.93,50.8,50.9,50.9,51.7,49.8,40,42,38,0.481,27.3,28.4,26.1,3.025,1.9,66,85,5.1,0.00406,0.00451,39.1,41.2,14,771,0,.,7.81,0.00,0.00
15min,AgWx,beryljct,423,28MAR2021:11:00:00,58.5,13.9,53.1,53.0,52.1,53.0,50.9,38,40,36,0.501,27.5,28.6,26.2,2.587,3.0,111,29,5.7,0.00429,0.00488,39.6,41.2,14,802,0,.,7.80,0.00,0.00
15min,AgWx,beryljct,423,28MAR2021:11:15:00,59.5,13.87,55.9,55.2,53.8,55.9,52.1,35,37,34,0.511,26.9,28.8,25.5,0.702,2.5,71,57,4.4,0.00453,0.00511,40.1,41.1,14,827,0,.,7.80,0.00,0.00
15min,AgWx,beryljct,423,28MAR2021:11:30:00,60.9,13.83,55.9,55.6,55.7,56.1,54.9,32,34,30,0.454,26.0,27.5,24.8,3.946,2.5,118,60,5.2,0.00478,0.00540,40.7,41.1,14,850,0,.,7.79,0.00,0.00
15min,AgWx,beryljct,423,28MAR2021:11:45:00,62.1,13.83,58.0,58.4,56.8,58.7,55.6,29,31,27,0.466,24.6,26.7,23.0,5.261,2.7,133,32,6.6,0.00497,0.00564,41.3,41.1,14,869,0,.,7.79,0.00,0.00
15min,AgWx,beryljct,423,28MAR2021:12:00:00,63.3,13.83,59.5,59.3,58.7,60.0,57.9,26,27,25,0.458,24.1,26.1,22.5,3.332,4.3,111,24,8.1,0.00522,0.00613,42.0,41.1,14,882,0,.,7.79,0.00,0.00
15min,AgWx,beryljct,423,28MAR2021:12:15:00,64.3,13.77,59.4,59.9,59.9,60.9,58.8,25,27,24,0.436,24.2,25.6,23.2,2.499,4.1,81,40,7.1,0.00533,0.00624,42.7,41.1,14,890,0,.,7.79,0.00,0.00
15min,AgWx,beryljct,423,28MAR2021:12:30:00,65.3,13.78,62.5,63.0,60.8,63.0,59.8,25,26,24,0.470,24.4,26.7,23.2,4.801,3.8,1.2,40,6.9,0.00542,0.00631,43.4,41.1,14,895,0,.,7.78,0.00,0.00
15min,AgWx,beryljct,423,28MAR2021:12:45:00,66.4,13.74,66.8,64.3,63.0,64.3,61.8,22,25,20,0.443,23.4,27.0,21.8,5.02,4.3,152,68,10.5,0.00563,0.00664,44.2,41.1,14,899,0,.,7.78,0.00,0.00
15min,AgWx,beryljct,423,28MAR2021:13:00:00,67.4,13.72,67.1,64.8,64.5,65.3,63.0,20,22,17,0.367,22.0,25.0,19.1,5.02,6.3,156,27,12.9,0.00588,0.00719,44.9,41.2,14,897,0,.,7.78,0.00,0.00
15min,AgWx,beryljct,423,28MAR2021:13:15:00,68.3,13.67,67.4,66.2,65.4,66.6,64.6,18,20,17,0.389,20.9,23.8,19.4,6.357,9.4,175,36,17.5,0.00616,0.00789,45.7,41.3,14,891,0,.,7.78,0.00,0.00
15min,AgWx,beryljct,423,28MAR2021:13:30:00,68.9,13.7,65.8,67.6,66.6,67.7,65.8,18,20,16,0.463,21.5,25.7,19.2,16.84,13.8,207,22,28.7,0.00649,0.00870,46.4,41.4,14,880,0,.,7.78,0.00,0.00
15min,AgWx,beryljct,423,28MAR2021:13:45:00,69.3,13.67,67.6,66.7,66.7,67.6,65.2,18,21,15,0.350,21.4,24.9,18.2,14.4,11.4,214,27,18.4,0.00630,0.00829,47.1,41.5,14,869,0,.,7.78,0.00,0.00
15min,AgWx,beryljct,423,28MAR2021:14:00:00,69.8,13.73,68.4,67.2,66.6,67.5,65.6,15,17,14,0.360,17.7,20.6,15.2,9.25,13.1,188,17,19.6,0.00639,0.00860,47.7,41.6,14,853,0,.,7.78,0.00,0.00
15min,AgWx,beryljct,423,28MAR2021:14:15:00,70.1,13.67,65.9,67.0,66.8,67.8,66.0,15,16,14,0.323,17.0,19.7,15.3,10.15,12.6,197,15,19.1,0.00627,0.00845,48.3,41.7,14,832,0,.,7.78,0.00,0.00
15min,AgWx,beryljct,423,28MAR2021:14:30:00,70.4,13.73,65.6,66.9,66.7,67.1,66.2,15,16,14,0.330,17.6,19.6,15.4,12.04,12.5,207,21,16.6,0.00610,0.00824,48.9,41.9,14,807,0,.,7.78,0.00,0.00
15min,AgWx,beryljct,423,28MAR2021:14:45:00,70.5,13.66,66.2,66.7,66.9,68.2,66.2,14,15,13,0.310,16.4,18.5,14.4,12.21,13.2,201,11,20.9,0.00605,0.00829,49.4,42.0,14,779,0,.,7.78,0.00,0.00
15min,AgWx,beryljct,423,28MAR2021:15:00:00,70.4,13.62,69.3,67.0,66.7,68.2,65.8,14,15,13,0.321,15.9,19.1,13.8,11.99,13.6,191,12,18.6,0.00575,0.00801,49.9,42.2,14,717,0,.,7.78,0.00,0.00
15min,AgWx,beryljct,423,28MAR2021:15:15:00,70.4,13.72,65.5,66.6,66.6,67.6,65.7,14,15,12,0.318,15.7,18.2,12.7,12.5,13.3,208,14,18.3,0.00570,0.00792,50.4,42.4,14,712,0,.,7.78,0.00,0.00
15min,AgWx,beryljct,423,28MAR2021:15:30:00,70.2,13.66,65.0,65.7,66.4,67.4,65.7,14,15,13,0.317,15.9,18.2,14.7,12.3,13.3,202,11,18.3,0.00548,0.00768,50.8,42.6,14,674,0,.,7.78,0.00,0.00
15min,AgWx,beryljct,423,28MAR2021:15:45:00,69.9,13.64,67.4,66.6,65.9,66.6,65.2,15,17,14,0.361,17.6,19.3,16.0,12.82,11.9,215,14,17.8,0.00502,0.00700,51.1,42.7,14,628,0,.,7.78,0.00,0.00
15min,AgWx,beryljct,423,28MAR2021:16:00:00,69.6,13.62,64.6,65.2,65.6,66.8,65.0,16,17,15,0.338,17.7,19.5,16.6,15.17,13.8,205,14,22.1,0.00497,0.00712,51.5,42.9,14,587,0,.,7.78,0.00,0.00
15min,AgWx,beryljct,423,28MAR2021:16:15:00,69.2,13.66,64.7,65.0,65.3,66.2,64.7,17,18,16,0.343,18.8,20.1,17.4,13.46,14.2,203,12,20.4,0.00473,0.00688,51.8,43.1,14,540,0,.,7.78,0.00,0.00
15min,AgWx,beryljct,423,28MAR2021:16:30:00,68.9,13.68,64.6,65.5,65.2,65.9,64.7,17,17,16,0.355,18.6,20.3,17.5,15.04,13.3,203,14,19.7,0.00439,0.00643,52.0,43.3,14,493,0,.,7.79,0.00,0.00
15min,AgWx,beryljct,423,28MAR2021:16:45:00,68.5,13.71,64.4,64.6,64.9,65.4,64.2,15,17,15,0.316,16.8,18.7,15.3,12.43,13.2,195,10,18.0,0.00414,0.00617,52.2,43.5,14,443,0,.,7.79,0.00,0.00
15min,AgWx,beryljct,423,28MAR2021:17:00:00,67.9,13.69,64.3,64.2,64.5,64.9,63.9,15,16,14,0.308,16.4,17.7,15.0,17.12,15.0,195,8.2,19.6,0.00403,0.00620,52.4,43.7,14,391,0,.,7.79,0.00,0.00
15min,AgWx,beryljct,423,28MAR2021:17:15:00,67.3,13.73,63.6,63.6,63.9,64.2,63.5,16,16,15,0.320,16.1,17.4,15.1,15.26,14.2,193,12,20.3,0.00366,0.00572,52.5,43.9,14,339,0,.,7.79,0.00,0.00
15min,AgWx,beryljct,423,28MAR2021:17:30:00,66.5,13.72,62.8,63.0,63.3,63.7,63.0,16,17,15,0.298,15.9,17.4,14.3,14.89,13.7,192,9.3,18.8,0.00330,0.00528,52.6,44.1,14,284,0,.,7.78,0.00,0.00
15min,AgWx,beryljct,423,28MAR2021:17:45:00,65.6,13.78,62.2,62.1,62.5,63.0,62.1,15,16,15,0.293,14.6,15.6,13.9,15.04,14.9,187,7.1,19.1,0.00316,0.00520,52.6,44.3,14,233,0,.,7.79,0.00,0.00
15min,AgWx,beryljct,423,28MAR2021:18:00:00,64.6,13.7,61.1,61.3,61.7,62.2,61.3,16,17,15,0.302,15.4,16.3,14.5,12.71,13.9,189,6.5,17.6,0.00138,0.00164,52.7,44.5,14,181,0,.,7.79,0.00,0.00
15min,AgWx,beryljct,423,28MAR2021:18:15:00,63.5,13.17,60.0,60.0,60.7,61.3,60.0,17,17,16,0.305,15.2,15.9,14.5,12.25,13.1,190,6.9,17.5,0.00124,0.00148,52.6,44.7,14,132,0,.,7.79,0.00,0.00
15min,AgWx,beryljct,423,28MAR2021:18:30:00,62.0,13.11,58.3,58.6,59.2,60.0,58.5,19,20,17,0.333,17.0,17.9,15.5,9.43,11.7,193,7.2,15.9,0.00105,0.00128,52.5,44.9,14,85,0,.,7.79,0.00,0.00
15min,AgWx,beryljct,423,28MAR2021:18:45:00,60.3,13.05,55.4,56.2,57.3,58.6,56.2,21,22,20,0.334,17.4,17.8,17.1,8.15,10.1,190,5.9,13.2,0.00084,0.00105,52.4,45.0,14,39,0,.,7.79,0.00,0.00
15min,AgWx,beryljct,423,28MAR2021:19:00:00,58.1,13.02,54.1,54.4,54.6,56.1,53.9,23,24,22,0.336,17.6,17.9,17.4,7.782,7.8,194,5.6,9.9,0.00060,0.00078,52.2,45.2,14,7,0,.,7.80,0.00,0.00
15min,AgWx,beryljct,423,28MAR2021:19:15:00,55.9,12.99,52.6,51.8,52.5,54.3,51.6,25,26,23,0.341,17.6,18.1,17.3,7.41,7.0,194,5.2,8.4,0.00049,0.00065,52.0,45.3,14,1,0,.,7.80,0.00,0.00
15min,AgWx,beryljct,423,28MAR2021:19:30:00,53.9,12.98,52.4,51.7,51.6,52.2,51.0,26,27,26,0.350,18.3,18.7,17.9,7.848,7.6,193,5.5,9.0,0.00050,0.00065,51.8,45.5,14,0,0,.,7.80,0.00,0.00
15min,AgWx,beryljct,423,28MAR2021:19:45:00,52.6,12.95,51.2,50.9,51.0,51.8,50.5,28,29,27,0.355,18.9,19.2,18.6,7.147,6.9,198,3.8,8.5,0.00044,0.00058,51.6,45.6,14,0,0,.,7.80,0.00,0.00
15min,AgWx,beryljct,423,28MAR2021:20:00:00,51.7,12.94,51.7,51.7,51.4,51.8,50.9,28,28,27,0.362,19.2,19.5,18.9,8.55,7.8,201,4.6,9.1,0.00050,0.00064,51.3,45.8,14,0,0,.,7.80,0.00,0.00
15min,AgWx,beryljct,423,28MAR2021:20:15:00,51.3,12.95,51.6,51.3,51.6,52.0,51.1,28,29,27,0.368,19.6,19.9,19.3,8.77,8.5,197,5.2,10.2,0.00053,0.00068,51.1,45.9,14,0,0,.,7.80,0.00,0.00
15min,AgWx,beryljct,423,28MAR2021:20:30:00,50.8,12.94,48.3,48.1,50.0,51.2,48.1,30,32,29,0.364,19.7,20.0,19.2,8.15,7.8,195,6.8,9.4,0.00046,0.00060,50.8,46.0,14,0,0,.,7.80,0.00,0.00
15min,AgWx,beryljct,423,28MAR2021:20:45:00,50.2,12.93,49.9,49.6,49.4,50.0,48.2,31,32,30,0.373,20.1,20.3,19.7,8.7,8.5,198,4.9,10.1,0.00047,0.00060,50.5,46.0,14,0,0,.,7.80,0.00,0.00
15min,AgWx,beryljct,423,28MAR2021:21:00:00,49.6,12.92,48.5,48.3,48.3,49.6,47.8,33,33,31,0.379,20.3,20.5,20.0,8.55,8.3,200,3.5,10.0,0.00044,0.00056,50.2,46.1,14,0,0,.,7.81,0.00,0.00
15min,AgWx,beryljct,423,28MAR2021:21:15:00,48.7,12.91,48.2,48.3,47.2,48.3,45.7,34,36,32,0.374,20.2,20.7,19.2,8.15,8.0,195,6.4,9.4,0.00041,0.00052,50.0,46.2,14,0,0,.,7.80,0.00,0.00
15min,AgWx,beryljct,423,28MAR2021:21:30:00,48.0,12.91,45.1,44.0,46.0,48.3,42.2,35,40,32,0.368,20.0,20.4,19.0,6.226,6.7,178,15,9.1,0.00033,0.00044,49.7,46.3,14,0,0,.,7.80,0.00,0.00
15min,AgWx,beryljct,423,28MAR2021:21:45:00,47.0,12.9,43.9,44.4,45.2,45.9,44.1,35,37,35,0.357,19.5,19.8,19.1,7.651,7.4,178,6.3,8.8,0.00035,0.00045,49.4,46.3,14,0,0,.,7.81,0.00,0.00
15min,AgWx,beryljct,423,28MAR2021:22:00:00,46.0,12.9,44.6,44.1,44.2,45.0,43.8,36,37,35,0.358,19.2,19.6,18.9,6.533,6.7,176,9.4,8.5,0.00031,0.00040,49.2,46.3,14,0,0,.,7.80,0.00,0.00
15min,AgWx,beryljct,423,28MAR2021:22:15:00,45.0,12.88,44.7,42.9,42.5,44.2,40.2,39,43,36,0.363,19.1,19.8,18.8,3.42,4.1,166,75,6.8,0.00014,0.00021,48.9,46.4,14,0,0,.,7.81,0.00,0.00
15min,AgWx,beryljct,423,28MAR2021:22:30:00,44.0,12.87,43.5,43.0,42.9,44.2,41.3,38,40,36,0.356,19.0,19.6,18.5,4.647,3.0,74,37,5.9,0.00005,0.00011,48.7,46.4,14,0,0,.,7.81,0.00,0.00
15min,AgWx,beryljct,423,28MAR2021:22:45:00,42.9,12.87,40.8,40.0,40.1,43.2,37.7,42,47,37,0.348,19.1,19.6,18.1,0.263,2.3,163,22,4.4,-0.00002,0.00001,48.4,46.4,14,0,0,.,7.81,0.00,0.00
15min,AgWx,beryljct,423,28MAR2021:23:00:00,41.9,12.87,40.7,39.6,41.3,44.6,38.8,39,43,34,0.347,18.3,19.2,16.8,1.885,1.8,176,45,3.3,-0.00006,-0.00006,48.2,46.4,14,0,0,.,7.81,0.00,0.00
15min,AgWx,beryljct,423,28MAR2021:23:15:00,40.9,12.86,33.0,36.2,39.5,41.7,36.2,42,46,38,0.324,18.0,18.7,16.8,2.762,1.7,216,30,3.2,-0.00008,-0.00008,47.9,46.4,14,0,0,.,7.81,0.00,0.00
15min,AgWx,beryljct,423,28MAR2021:23:30:00,39.5,12.84,36.1,34.3,35.0,38.3,33.3,50,53,45,0.340,18.2,19.4,16.8,3.88,2.0,317,23,4.0,-0.00006,-0.00006,47.6,46.4,14,0,0,.,7.81,0.00,0.00
15min,AgWx,bigpiney,439,28MAR2021:00:00:00,26.2,12.73,27.0,26.1,25.8,26.7,25.0,74,77,71,0.358,18.8,19.3,17.9,2.28,2.8,323,23,5.5,-0.00005,-0.00005,31.3,31.5,11,0,0,0.0,0.40,0.00,0.00
15min,AgWx,bigpiney,439,28MAR2021:00:15:00,25.7,12.72,26.4,25.9,25.6,26.2,24.9,75,76,73,0.355,18.7,19.2,18.0,1.469,2.4,318,15,3.2,-0.00006,-0.00007,31.3,31.5,11,0,0,0.0,0.40,0.00,0.00
15min,AgWx,bigpiney,439,28MAR2021:00:30:00,25.2,12.72,26.8,26.5,25.7,26.5,24.8,75,76,74,0.360,18.9,19.5,17.8,0,0.9,271,20,1.8,-0.00012,-0.00017,31.3,31.5,11,0,0,0.0,0.40,0.00,0.00
15min,AgWx,bigpiney,439,28MAR2021:00:45:00,24.7,12.71,25.7,25.1,26.3,27.0,25.0,72,74,70,0.341,18.7,19.4,17.0,0,0.4,345,22,1.9,-0.00016,-0.00024,31.3,31.5,11,0,0,0.0,0.40,0.00,0.00
15min,AgWx,bigpiney,439,28MAR2021:01:00:00,24.2,12.7,26.9,26.3,25.6,26.3,25.1,75,76,73,0.355,18.6,19.1,18.1,2.017,1.1,95,11,2.6,-0.00011,-0.00015,31.3,31.6,11,0,0,0.0,0.40,0.00,0.00
15min,AgWx,bigpiney,439,28MAR2021:01:15:00,24.0,12.7,23.2,22.5,25.4,26.3,22.5,73,75,71,0.307,17.9,18.9,14.9,1.951,2.4,151,40,4.0,-0.00006,-0.00006,31.3,31.5,11,0,0,0.0,0.40,0.00,0.00
15min,AgWx,bigpiney,439,28MAR2021:01:30:00,23.7,12.69,23.8,23.7,23.0,24.0,21.7,77,78,74,0.328,16.9,17.8,14.9,1.929,1.9,222,23,3.4,-0.00008,-0.00009,31.3,31.5,11,0,0,0.0,0.40,0.00,0.00
15min,AgWx,bigpiney,439,28MAR2021:01:45:00,23.4,12.69,26.3,25.6,24.5,25.6,22.7,75,77,70,0.340,17.5,18.6,15.1,0,1.6,250,71,4.5,-0.00009,-0.00011,31.3,31.5,11,0,0,0.0,0.40,0.00,0.00
15min,AgWx,bigpiney,439,28MAR2021:02:00:00,23.0,12.68,26.3,24.6,24.6,25.9,22.9,74,78,71,0.340,17.5,18.3,15.9,0.373,0.9,292,20,3.4,-0.00012,-0.00017,31.3,31.5,11,0,0,0.0,0.40,0.00,0.00
15min,AgWx,bigpiney,439,28MAR2021:02:15:00,22.7,12.68,24.3,23.8,23.6,24.9,22.3,77,80,74,0.336,17.4,18.8,15.4,0.789,1.5,311,21,2.7,-0.00009,-0.00012,31.3,31.5,11,0,0,0.0,0.40,0.00,0.00
15min,AgWx,bigpiney,439,28MAR2021:02:30:00,22.4,12.67,24.6,23.9,23.5,23.9,22.7,78,80,76,0.341,17.7,18.5,16.6,3.135,1.4,324,36,4.0,-0.00010,-0.00013,31.3,31.5,11,0,0,0.0,0.40,0.00,0.00
15min,AgWx,bigpiney,439,28MAR2021:02:45:00,22.2,12.65,23.8,23.4,23.5,24.2,22.6,78,81,76,0.347,17.7,18.4,17.2,4.998,2.6,4.5,19,5.3,-0.00006,-0.00006,31.3,31.6,11,0,0,0.0,0.40,0.00,0.00
15min,AgWx,bigpiney,439,28MAR2021:03:00:00,22.1,12.65,21.8,21.4,21.9,23.5,20.8,82,84,79,0.328,17.4,18.4,16.1,4.034,3.1,352,14,4.8,-0.00005,-0.00006,31.3,31.4,11,0,0,0.0,0.40,0.00,0.00
15min,AgWx,bigpiney,439,28MAR2021:03:15:00,21.9,12.64,22.3,21.7,21.3,21.9,20.5,84,86,83,0.329,17.3,17.8,16.6,1.228,2.0,317,17,3.9,-0.00008,-0.00010,31.3,31.5,11,0,0,0.0,0.40,0.00,0.00
15min,AgWx,bigpiney,439,28MAR2021:03:30:00,21.7,12.64,23.7,22.8,22.8,23.5,21.4,80,83,78,0.336,17.7,18.2,16.9,3.968,1.3,314,22,4.6,-0.00011,-0.00014,31.3,31.4,11,0,0,0.0,0.40,0.00,0.00
15min,AgWx,bigpiney,439,28MAR2021:03:45:00,21.6,12.62,22.9,22.1,22.4,23.0,21.9,81,82,80,0.334,17.5,17.8,17.0,4.253,3.8,313,11,4.6,-0.00004,-0.00004,31.3,31.5,11,0,0,0.0,0.40,0.00,0.00
15min,AgWx,bigpiney,439,28MAR2021:04:00:00,21.5,12.62,20.4,20.2,21.4,22.5,20.2,83,85,81,0.318,16.9,17.7,16.4,3.749,3.5,335,9.0,5.9,-0.00004,-0.00005,31.3,31.5,11,0,0,0.0,0.40,0.00,0.00
15min,AgWx,bigpiney,439,28MAR2021:04:15:00,21.2,12.62,21.2,20.1,20.3,20.6,19.8,86,87,85,0.318,16.7,17.2,16.1,2.806,4.5,323,6.6,6.5,-0.00004,-0.00004,31.3,31.5,11,0,0,0.0,0.40,0.00,0.00
15min,AgWx,bigpiney,439,28MAR2021:04:30:00,21.0,12.6,21.2,20.4,20.6,20.9,20.2,86,86,85,0.323,17.0,17.3,16.5,3.442,3.5,321,11,4.7,-0.00005,-0.00005,31.3,31.5,11,0,0,0.0,0.40,0.00,0.00
15min,AgWx,bigpiney,439,28MAR2021:04:45:00,20.9,12.59,23.0,22.2,21.1,22.5,20.3,85,87,82,0.334,17.4,18.1,16.7,5.831,4.3,306,8.4,6.2,-0.00004,-0.00004,31.3,31.5,11,0,0,0.0,0.40,0.00,0.00
15min,AgWx,bigpiney,439,28MAR2021:05:00:00,20.9,12.59,21.7,20.9,21.7,22.6,20.5,83,85,81,0.327,17.3,17.9,16.0,4.319,4.8,337,22,5.8,-0.00002,-0.00002,31.3,31.5,11,0,0,0.0,0.40,0.00,0.00
15min,AgWx,bigpiney,439,28MAR2021:05:15:00,20.8,12.58,21.5,20.5,20.9,21.2,20.5,85,86,85,0.325,17.1,17.3,16.6,4.056,3.9,331,12,5.3,-0.00004,-0.00004,31.3,31.6,11,0,0,0.0,0.40,0.00,0.00
15min,AgWx,bigpiney,439,28MAR2021:05:30:00,20.7,12.57,22.1,19.2,19.8,20.6,18.1,86,87,84,0.313,16.2,17.1,14.3,0,3.0,286,44,4.3,-0.00006,-0.00006,31.3,31.5,11,0,0,0.0,0.40,0.00,0.00
15min,AgWx,bigpiney,439,28MAR2021:05:45:00,20.4,12.56,20.0,19.3,21.0,22.1,19.3,85,88,78,0.282,17.3,18.1,13.6,4.253,0.9,271,23,4.3,-0.00012,-0.00017,31.3,31.4,11,0,0,0.0,0.40,0.00,0.00
15min,AgWx,bigpiney,439,28MAR2021:06:00:00,20.0,12.55,21.0,20.3,20.9,22.0,19.1,83,85,78,0.309,16.5,17.8,13.4,4.077,2.1,201,18,4.2,-0.00008,-0.00009,31.3,31.5,11,0,0,0.0,0.40,0.00,0.00
15min,AgWx,bigpiney,439,28MAR2021:06:15:00,19.7,12.57,21.8,20.9,20.7,22.0,19.6,83,85,81,0.326,16.4,17.9,15.1,2.324,2.4,207,9.8,4.0,-0.00007,-0.00008,31.3,31.6,11,3,0,0.0,0.40,0.00,0.00
15min,AgWx,bigpiney,439,28MAR2021:06:30:00,19.4,12.62,23.3,22.2,20.7,22.2,18.1,84,87,80,0.342,16.7,18.2,13.1,1.162,2.0,231,19,3.9,-0.00003,-0.00000,31.3,31.6,11,8,0,0.0,0.40,0.00,0.00
15min,AgWx,bigpiney,439,28MAR2021:06:45:00,19.0,12.88,21.7,19.4,20.8,22.5,18.8,82,86,76,0.310,16.2,18.1,13.1,0,1.4,242,63,2.7,-0.00016,-0.00015,31.3,31.5,11,39,0,0.0,0.40,0.00,0.00
15min,AgWx,bigpiney,439,28MAR2021:07:00:00,19.2,14.53,21.4,20.1,19.4,20.1,19.1,86,88,85,0.327,15.9,17.0,15.4,1.535,1.9,118,22,3.1,0.00005,0.00007,31.3,31.5,11,102,0,0.0,0.40,0.00,0.00
15min,AgWx,bigpiney,439,28MAR2021:07:15:00,20.0,15.03,23.4,22.7,21.7,22.7,20.2,87,88,85,0.361,18.2,19.4,17.1,2.105,0.7,332,46,2.3,0.00019,0.00021,31.3,31.6,11,147,0,0.0,0.40,0.00,0.00
15min,AgWx,bigpiney,439,28MAR2021:07:30:00,21.1,14.99,26.6,25.1,23.8,25.1,22.6,85,87,83,0.382,20.0,21.2,19.1,1.71,1.8,275,23,3.7,0.00035,0.00040,31.3,31.5,11,188,0,0.0,0.40,0.00,0.00
15min,AgWx,bigpiney,439,28MAR2021:07:45:00,22.7,14.93,27.3,26.7,26.0,26.8,25.1,81,83,78,0.384,21.0,21.6,20.6,0,1.1,244,14,2.8,0.00054,0.00059,31.3,31.5,11,232,0,0.0,0.40,0.00,0.00
15min,AgWx,bigpiney,439,28MAR2021:08:00:00,25.0,14.91,27.6,27.6,27.3,27.8,26.7,75,79,73,0.371,20.5,21.4,19.9,1.052,0.5,72,17,2.5,0.00077,0.00084,31.3,31.6,11,286,0,0.0,0.40,0.00,0.00
15min,AgWx,bigpiney,439,28MAR2021:08:15:00,27.7,14.89,28.4,28.3,28.1,28.6,27.5,74,76,72,0.396,20.9,21.8,19.8,2.521,0.9,96,32,2.5,0.00096,0.00105,31.3,31.5,11,326,0,0.0,0.40,0.00,0.00
15min,AgWx,bigpiney,439,28MAR2021:08:30:00,30.2,14.82,30.2,29.6,29.0,30.3,28.3,73,76,70,0.388,21.6,22.8,20.7,0.482,1.7,118,32,3.3,0.00112,0.00124,31.3,31.6,11,358,0,0.0,0.40,0.00,0.00
15min,AgWx,bigpiney,439,28MAR2021:08:45:00,32.4,14.39,30.7,30.5,29.9,30.6,29.4,71,73,70,0.412,21.7,22.8,20.7,0.307,0.4,40,20,2.1,0.00136,0.00146,31.3,31.5,11,402,0,0.0,0.40,0.00,0.00